| time (UTC) | temp F | wind direction | speed MPH | gust MPH | rain 1hr in | rain 24hr in | rain mn in | humidity % | barometer mb |
| 20260505080720 | 67 | 174 | 4.0 | 10.0 | 0.00 | 0.00 | 0.00 | 51 | 1024.0 |
| 20260505080215 | 67 | 106 | 3.0 | 7.0 | 0.00 | 0.00 | 0.00 | 50 | 1023.9 |
| 20260505075711 | 67 | 133 | 5.0 | 7.0 | 0.00 | 0.00 | 0.00 | 51 | 1023.9 |
| 20260505075209 | 67 | 142 | 6.0 | 10.0 | 0.00 | 0.00 | 0.00 | 49 | 1023.8 |
| 20260505074706 | 67 | 159 | 3.0 | 10.0 | 0.00 | 0.00 | 0.00 | 48 | 1023.7 |
| 20260505074203 | 68 | 116 | 7.0 | 9.0 | 0.00 | 0.00 | 0.00 | 48 | 1023.9 |
| 20260505073700 | 68 | 151 | 3.0 | 7.0 | 0.00 | 0.00 | 0.00 | 46 | 1023.7 |
| 20260505073158 | 68 | 93 | 2.0 | 4.0 | 0.00 | 0.00 | 0.00 | 47 | 1023.9 |
| 20260505072654 | 68 | 170 | 3.0 | 7.0 | 0.00 | 0.00 | 0.00 | 48 | 1023.6 |
| 20260505072151 | 69 | 170 | 5.0 | 10.0 | 0.00 | 0.00 | 0.00 | 48 | 1023.8 |
| 20260505071646 | 69 | 131 | 3.0 | 6.0 | 0.00 | 0.00 | 0.00 | 48 | 1023.6 |
| 20260505071144 | 68 | 176 | 3.0 | 6.0 | 0.00 | 0.00 | 0.00 | 49 | 1023.6 |
| 20260505070641 | 69 | 167 | 3.0 | 8.0 | 0.00 | 0.00 | 0.00 | 48 | 1023.6 |
| 20260505070137 | 69 | 112 | 2.0 | 7.0 | 0.00 | 0.00 | 0.00 | 48 | 1023.6 |
| 20260505065633 | 69 | 178 | 1.0 | 6.0 | 0.00 | 0.00 | 0.00 | 48 | 1023.5 |
| 20260505065130 | 68 | 161 | 5.0 | 11.0 | 0.00 | 0.00 | 0.00 | 50 | 1023.5 |
| 20260505064627 | 69 | 99 | 4.0 | 7.0 | 0.00 | 0.00 | 0.00 | 50 | 1023.5 |
| 20260505064125 | 69 | 193 | 7.0 | 13.0 | 0.00 | 0.00 | 0.00 | 50 | 1023.4 |
| 20260505063622 | 69 | 169 | 4.0 | 9.0 | 0.00 | 0.00 | 0.00 | 50 | 1023.3 |
| 20260505063118 | 69 | 137 | 9.0 | 14.0 | 0.00 | 0.00 | 0.00 | 48 | 1023.3 |
| 20260505062615 | 69 | 161 | 5.0 | 11.0 | 0.00 | 0.00 | 0.00 | 49 | 1023.3 |
| 20260505062112 | 69 | 127 | 6.0 | 11.0 | 0.00 | 0.00 | 0.00 | 50 | 1023.4 |
| 20260505061609 | 69 | 123 | 7.0 | 10.0 | 0.00 | 0.00 | 0.00 | 48 | 1023.4 |
| 20260505061108 | 69 | 85 | 7.0 | 13.0 | 0.00 | 0.00 | 0.00 | 48 | 1023.4 |
| 20260505060605 | 69 | 147 | 6.0 | 10.0 | 0.00 | 0.00 | 0.00 | 48 | 1023.3 |
| 20260505055556 | 69 | 145 | 6.0 | 11.0 | 0.00 | 0.00 | 0.00 | 49 | 1023.3 |
| 20260505055053 | 69 | 63 | 5.0 | 13.0 | 0.00 | 0.00 | 0.00 | 48 | 1023.4 |
| 20260505054550 | 69 | 95 | 9.0 | 13.0 | 0.00 | 0.00 | 0.00 | 47 | 1023.3 |
| 20260505054049 | 69 | 158 | 7.0 | 14.0 | 0.00 | 0.00 | 0.00 | 47 | 1023.1 |
| 20260505053545 | 69 | 128 | 3.0 | 13.0 | 0.00 | 0.00 | 0.00 | 47 | 1023.2 |
| 20260505053042 | 69 | 82 | 4.0 | 13.0 | 0.00 | 0.00 | 0.00 | 47 | 1023.3 |
| 20260505052539 | 69 | 83 | 7.0 | 13.0 | 0.00 | 0.00 | 0.00 | 46 | 1023.3 |
| 20260505052037 | 69 | 78 | 4.0 | 10.0 | 0.00 | 0.00 | 0.00 | 48 | 1023.3 |
| 20260505051533 | 69 | 103 | 6.0 | 10.0 | 0.00 | 0.00 | 0.00 | 45 | 1023.4 |
| 20260505051031 | 69 | 92 | 6.0 | 13.0 | 0.00 | 0.00 | 0.00 | 46 | 1023.3 |
| 20260505050529 | 68 | 70 | 8.0 | 13.0 | 0.00 | 0.00 | 0.00 | 47 | 1023.3 |
| 20260505041457 | 68 | 77 | 4.0 | 8.0 | 0.00 | 0.00 | 0.00 | 44 | 1023.4 |
| 20260505040954 | 68 | 36 | 4.0 | 9.0 | 0.00 | 0.00 | 0.00 | 41 | 1023.5 |
| 20260505040452 | 68 | 54 | 7.0 | 10.0 | 0.00 | 0.00 | 0.00 | 40 | 1023.5 |
| 20260505035948 | 68 | 67 | 3.0 | 8.0 | 0.00 | 0.00 | 0.00 | 37 | 1023.5 |
| 20260505035444 | 69 | 61 | 4.0 | 7.0 | 0.00 | 0.00 | 0.00 | 37 | 1023.5 |
| 20260505034942 | 68 | 77 | 2.0 | 6.0 | 0.00 | 0.00 | 0.00 | 38 | 1023.4 |
| 20260505034438 | 68 | 70 | 3.0 | 8.0 | 0.00 | 0.00 | 0.00 | 35 | 1023.7 |
| 20260505033935 | 67 | 356 | 2.0 | 2.0 | 0.00 | 0.00 | 0.00 | 38 | 1023.7 |
| 20260505033432 | 67 | 73 | 3.0 | 8.0 | 0.00 | 0.00 | 0.00 | 35 | 1023.8 |
| 20260505032930 | 68 | 58 | 4.0 | 8.0 | 0.00 | 0.00 | 0.00 | 34 | 1023.6 |
| 20260505032427 | 67 | 88 | 3.0 | 6.0 | 0.00 | 0.00 | 0.00 | 31 | 1023.9 |
| 20260505031923 | 67 | 67 | 1.0 | 7.0 | 0.00 | 0.00 | 0.00 | 25 | 1023.8 |
| 20260505031420 | 67 | 9 | 5.0 | 6.0 | 0.00 | 0.00 | 0.00 | 29 | 1023.9 |
| 20260505030917 | 67 | 80 | 2.0 | 2.0 | 0.00 | 0.00 | 0.00 | 33 | 1023.7 |
| 20260505030413 | 67 | 33 | 6.0 | 8.0 | 0.00 | 0.00 | 0.00 | 35 | 1023.9 |
| 20260505025909 | 66 | 28 | 6.0 | 8.0 | 0.00 | 0.00 | 0.00 | 30 | 1023.9 |
| 20260505025406 | 67 | 79 | 4.0 | 7.0 | 0.00 | 0.00 | 0.00 | 30 | 1024.0 |
| 20260505024905 | 67 | 62 | 0.0 | 4.0 | 0.00 | 0.00 | 0.00 | 31 | 1024.1 |
| 20260505024402 | 66 | 90 | 7.0 | 9.0 | 0.00 | 0.00 | 0.00 | 32 | 1024.0 |
| 20260505023859 | 67 | 73 | 4.0 | 8.0 | 0.00 | 0.00 | 0.00 | 30 | 1024.0 |
| 20260505023356 | 65 | 348 | 4.0 | 8.0 | 0.00 | 0.00 | 0.00 | 33 | 1024.0 |
| 20260505022853 | 66 | 51 | 1.0 | 7.0 | 0.00 | 0.00 | 0.00 | 34 | 1024.1 |
| 20260505022350 | 66 | 47 | 2.0 | 8.0 | 0.00 | 0.00 | 0.00 | 32 | 1024.1 |
| 20260505021848 | 65 | 78 | 3.0 | 4.0 | 0.00 | 0.00 | 0.00 | 37 | 1023.9 |
| 20260505021344 | 65 | 70 | 3.0 | 4.0 | 0.00 | 0.00 | 0.00 | 36 | 1024.0 |
| 20260505020840 | 65 | 67 | 2.0 | 7.0 | 0.00 | 0.00 | 0.00 | 36 | 1024.2 |
| 20260505020335 | 65 | 59 | 3.0 | 7.0 | 0.00 | 0.00 | 0.00 | 33 | 1024.2 |
| 20260505015832 | 65 | 84 | 4.0 | 8.0 | 0.00 | 0.00 | 0.00 | 37 | 1024.2 |
| 20260505015330 | 65 | 67 | 2.0 | 7.0 | 0.00 | 0.00 | 0.00 | 40 | 1024.2 |
| 20260505014827 | 64 | 62 | 3.0 | 10.0 | 0.00 | 0.00 | 0.00 | 40 | 1024.2 |
| 20260505014324 | 65 | 42 | 6.0 | 9.0 | 0.00 | 0.00 | 0.00 | 38 | 1024.2 |
| 20260505013820 | 64 | 56 | 2.0 | 4.0 | 0.00 | 0.00 | 0.00 | 41 | 1024.2 |
| 20260505013318 | 64 | 20 | 5.0 | 7.0 | 0.00 | 0.00 | 0.00 | 42 | 1024.2 |
| 20260505012816 | 65 | 64 | 3.0 | 9.0 | 0.00 | 0.00 | 0.00 | 37 | 1024.2 |
| 20260505012313 | 65 | 64 | 4.0 | 7.0 | 0.00 | 0.00 | 0.00 | 38 | 1024.2 |
| 20260505011809 | 64 | 7 | 6.0 | 9.0 | 0.00 | 0.00 | 0.00 | 38 | 1024.3 |
| 20260505011306 | 64 | 34 | 6.0 | 8.0 | 0.00 | 0.00 | 0.00 | 39 | 1024.3 |
| 20260505010802 | 65 | 36 | 7.0 | 10.0 | 0.00 | 0.00 | 0.00 | 37 | 1024.2 |
| 20260505010258 | 64 | 48 | 2.0 | 10.0 | 0.00 | 0.00 | 0.00 | 37 | 1024.1 |
| 20260505005754 | 64 | 52 | 6.0 | 10.0 | 0.00 | 0.00 | 0.00 | 35 | 1023.9 |
| 20260505005252 | 65 | 20 | 5.0 | 10.0 | 0.00 | 0.00 | 0.00 | 33 | 1024.1 |
| 20260505004749 | 65 | 356 | 7.0 | 14.0 | 0.00 | 0.00 | 0.00 | 36 | 1024.0 |
| 20260505004245 | 65 | 6 | 6.0 | 9.0 | 0.00 | 0.00 | 0.00 | 29 | 1024.0 |
| 20260505003742 | 65 | 30 | 6.0 | 10.0 | 0.00 | 0.00 | 0.00 | 29 | 1023.9 |
| 20260505003240 | 65 | 63 | 2.0 | 9.0 | 0.00 | 0.00 | 0.00 | 31 | 1024.0 |
| 20260505002736 | 65 | 358 | 7.0 | 13.0 | 0.00 | 0.00 | 0.00 | 31 | 1024.0 |
| 20260505002234 | 65 | 351 | 5.0 | 9.0 | 0.00 | 0.00 | 0.00 | 33 | 1023.7 |
| 20260505001731 | 64 | 0 | 5.0 | 7.0 | 0.00 | 0.00 | 0.00 | 31 | 1023.8 |
| 20260505001229 | 63 | 352 | 4.0 | 11.0 | 0.00 | 0.00 | 0.00 | 34 | 1023.4 |
| 20260505000725 | 64 | 271 | 11.0 | 13.0 | 0.00 | 0.00 | 0.00 | 31 | 1023.1 |
| 20260505000223 | 63 | 277 | 10.0 | 14.0 | 0.00 | 0.00 | 0.00 | 33 | 1023.2 |
| 20260504235719 | 63 | 345 | 11.0 | 14.0 | 0.00 | 0.00 | 0.00 | 32 | 1023.4 |
| 20260504235215 | 63 | 301 | 11.0 | 15.0 | 0.00 | 0.00 | 0.00 | 32 | 1023.5 |
| 20260504234713 | 63 | 309 | 10.0 | 14.0 | 0.00 | 0.00 | 0.00 | 36 | 1023.5 |
| 20260504234210 | 62 | 354 | 10.0 | 13.0 | 0.00 | 0.00 | 0.00 | 35 | 1023.7 |
| 20260504233706 | 62 | 273 | 11.0 | 17.0 | 0.00 | 0.00 | 0.00 | 36 | 1023.5 |
| 20260504233202 | 62 | 269 | 9.0 | 14.0 | 0.00 | 0.00 | 0.00 | 40 | 1023.6 |
| 20260504232700 | 61 | 331 | 9.0 | 13.0 | 0.00 | 0.00 | 0.00 | 39 | 1023.6 |
| 20260504232156 | 61 | 278 | 11.0 | 14.0 | 0.00 | 0.00 | 0.00 | 40 | 1023.6 |
| 20260504231653 | 61 | 12 | 7.0 | 10.0 | 0.00 | 0.00 | 0.00 | 41 | 1023.8 |
| 20260504231150 | 60 | 274 | 9.0 | 13.0 | 0.00 | 0.00 | 0.00 | 43 | 1024.0 |
| 20260504230646 | 60 | 353 | 6.0 | 10.0 | 0.00 | 0.00 | 0.00 | 45 | 1023.7 |
| 20260504230145 | 59 | 330 | 8.0 | 11.0 | 0.00 | 0.00 | 0.00 | 48 | 1023.8 |
| 20260504225643 | 59 | 353 | 7.0 | 14.0 | 0.00 | 0.00 | 0.00 | 49 | 1023.7 |
| 20260504225138 | 59 | 327 | 11.0 | 11.0 | 0.00 | 0.00 | 0.00 | 48 | 1023.6 |
| 20260504224635 | 58 | 343 | 7.0 | 10.0 | 0.00 | 0.00 | 0.00 | 49 | 1023.8 |
| 20260504224132 | 58 | 302 | 10.0 | 13.0 | 0.00 | 0.00 | 0.00 | 47 | 1023.6 |
| 20260504223629 | 58 | 287 | 7.0 | 8.0 | 0.00 | 0.00 | 0.00 | 49 | 1023.7 |
| 20260504223125 | 58 | 358 | 6.0 | 8.0 | 0.00 | 0.00 | 0.00 | 50 | 1023.4 |
| 20260504222622 | 58 | 339 | 8.0 | 8.0 | 0.00 | 0.00 | 0.00 | 50 | 1023.6 |
| 20260504222119 | 57 | 274 | 8.0 | 14.0 | 0.00 | 0.00 | 0.00 | 53 | 1023.5 |
| 20260504221616 | 57 | 317 | 4.0 | 9.0 | 0.00 | 0.00 | 0.00 | 54 | 1023.4 |
| 20260504221114 | 56 | 274 | 7.0 | 9.0 | 0.00 | 0.00 | 0.00 | 55 | 1023.5 |
| 20260504220610 | 56 | 291 | 9.0 | 11.0 | 0.00 | 0.00 | 0.00 | 55 | 1023.4 |
| 20260504220108 | 56 | 274 | 6.0 | 9.0 | 0.00 | 0.00 | 0.00 | 57 | 1023.4 |
| 20260504215603 | 56 | 286 | 8.0 | 9.0 | 0.00 | 0.00 | 0.00 | 58 | 1023.5 |
| 20260504215101 | 56 | 252 | 6.0 | 9.0 | 0.00 | 0.00 | 0.00 | 58 | 1023.3 |
| 20260504214557 | 55 | 293 | 8.0 | 10.0 | 0.00 | 0.00 | 0.00 | 59 | 1023.2 |
| 20260504214053 | 55 | 272 | 7.0 | 10.0 | 0.00 | 0.00 | 0.00 | 60 | 1023.1 |
| 20260504213550 | 55 | 273 | 5.0 | 7.0 | 0.00 | 0.00 | 0.00 | 60 | 1023.1 |
| 20260504213047 | 55 | 314 | 3.0 | 9.0 | 0.00 | 0.00 | 0.00 | 61 | 1022.9 |
| 20260504212543 | 54 | 284 | 4.0 | 7.0 | 0.00 | 0.00 | 0.00 | 61 | 1023.0 |
| 20260504212040 | 54 | 180 | 1.0 | 4.0 | 0.00 | 0.00 | 0.00 | 62 | 1022.8 |
| 20260504211537 | 54 | 270 | 4.0 | 6.0 | 0.00 | 0.00 | 0.00 | 60 | 1022.7 |
| 20260504211034 | 54 | 281 | 3.0 | 8.0 | 0.00 | 0.00 | 0.00 | 61 | 1022.8 |
| 20260504210531 | 53 | 270 | 3.0 | 6.0 | 0.00 | 0.00 | 0.00 | 61 | 1022.7 |
| 20260504210028 | 53 | 276 | 2.0 | 4.0 | 0.00 | 0.00 | 0.00 | 63 | 1022.5 |
| 20260504205526 | 53 | 270 | 4.0 | 4.0 | 0.00 | 0.00 | 0.00 | 64 | 1022.7 |
| 20260504205023 | 52 | 270 | 2.0 | 2.0 | 0.00 | 0.00 | 0.00 | 66 | 1022.7 |
| 20260504204521 | 52 | 259 | 1.0 | 2.0 | 0.00 | 0.00 | 0.00 | 66 | 1022.5 |
| 20260504204020 | 52 | 163 | 0.0 | 0.0 | 0.00 | 0.00 | 0.00 | 68 | 1022.5 |
| 20260504203517 | 51 | 154 | 0.0 | 0.0 | 0.00 | 0.00 | 0.00 | 68 | 1022.4 |
| 20260504203015 | 51 | 178 | 1.0 | 2.0 | 0.00 | 0.00 | 0.00 | 67 | 1022.2 |
| 20260504202510 | 51 | 271 | 1.0 | 2.0 | 0.00 | 0.00 | 0.00 | 68 | 1022.1 |
| 20260504202007 | 51 | 285 | 3.0 | 4.0 | 0.00 | 0.00 | 0.00 | 67 | 1022.2 |
| 20260504201504 | 52 | 280 | 4.0 | 4.0 | 0.00 | 0.00 | 0.00 | 67 | 1022.0 |
| 20260504201002 | 52 | 266 | 4.0 | 4.0 | 0.00 | 0.00 | 0.00 | 67 | 1022.0 |
| 20260504200458 | 52 | 292 | 3.0 | 4.0 | 0.00 | 0.00 | 0.00 | 66 | 1021.6 |
| 20260504195955 | 52 | 276 | 4.0 | 7.0 | 0.00 | 0.00 | 0.00 | 65 | 1021.5 |
| 20260504195451 | 52 | 292 | 5.0 | 9.0 | 0.00 | 0.00 | 0.00 | 65 | 1021.5 |
| 20260504194948 | 52 | 289 | 4.0 | 8.0 | 0.00 | 0.00 | 0.00 | 65 | 1021.3 |
| 20260504194444 | 52 | 280 | 5.0 | 8.0 | 0.00 | 0.00 | 0.00 | 66 | 1021.4 |
| 20260504193940 | 52 | 301 | 6.0 | 7.0 | 0.00 | 0.00 | 0.00 | 67 | 1021.2 |
| 20260504193437 | 52 | 274 | 7.0 | 8.0 | 0.00 | 0.00 | 0.00 | 68 | 1021.1 |
| 20260504192936 | 53 | 285 | 4.0 | 8.0 | 0.00 | 0.00 | 0.00 | 67 | 1021.1 |
| 20260504192432 | 53 | 261 | 8.0 | 10.0 | 0.00 | 0.00 | 0.00 | 67 | 1021.1 |
| 20260504191931 | 53 | 268 | 6.0 | 10.0 | 0.00 | 0.00 | 0.00 | 68 | 1020.8 |
| 20260504191429 | 53 | 273 | 6.0 | 10.0 | 0.00 | 0.00 | 0.00 | 68 | 1020.8 |
| 20260504190924 | 53 | 279 | 7.0 | 10.0 | 0.00 | 0.00 | 0.00 | 68 | 1020.8 |
| 20260504190420 | 53 | 278 | 4.0 | 7.0 | 0.00 | 0.00 | 0.00 | 69 | 1020.9 |
| 20260504185917 | 53 | 290 | 6.0 | 8.0 | 0.00 | 0.00 | 0.00 | 69 | 1021.0 |
| 20260504185414 | 53 | 278 | 6.0 | 9.0 | 0.00 | 0.00 | 0.00 | 71 | 1020.8 |
| 20260504184910 | 53 | 282 | 7.0 | 8.0 | 0.00 | 0.00 | 0.00 | 72 | 1020.6 |
| 20260504184406 | 53 | 278 | 8.0 | 9.0 | 0.00 | 0.00 | 0.00 | 72 | 1020.6 |
| 20260504183902 | 53 | 273 | 7.0 | 10.0 | 0.00 | 0.00 | 0.00 | 73 | 1020.4 |
| 20260504183359 | 53 | 307 | 6.0 | 10.0 | 0.00 | 0.00 | 0.00 | 74 | 1020.5 |
| 20260504182857 | 53 | 289 | 8.0 | 11.0 | 0.00 | 0.00 | 0.00 | 74 | 1020.5 |
| 20260504182354 | 53 | 249 | 7.0 | 10.0 | 0.00 | 0.00 | 0.00 | 74 | 1020.3 |
| 20260504181850 | 53 | 296 | 6.0 | 13.0 | 0.00 | 0.00 | 0.00 | 74 | 1020.4 |
| 20260504181348 | 53 | 281 | 9.0 | 13.0 | 0.00 | 0.00 | 0.00 | 74 | 1020.1 |
| 20260504180847 | 53 | 273 | 8.0 | 9.0 | 0.00 | 0.00 | 0.00 | 74 | 1020.2 |
| 20260504180345 | 54 | 288 | 5.0 | 7.0 | 0.00 | 0.00 | 0.00 | 74 | 1020.2 |
| 20260504175843 | 54 | 302 | 5.0 | 8.0 | 0.00 | 0.00 | 0.00 | 73 | 1020.1 |
| 20260504175339 | 54 | 285 | 4.0 | 7.0 | 0.00 | 0.00 | 0.00 | 73 | 1020.2 |
| 20260504174838 | 54 | 275 | 5.0 | 9.0 | 0.00 | 0.00 | 0.00 | 74 | 1019.8 |
| 20260504174335 | 54 | 289 | 4.0 | 7.0 | 0.00 | 0.00 | 0.00 | 74 | 1020.0 |
| 20260504173831 | 54 | 278 | 4.0 | 9.0 | 0.00 | 0.00 | 0.00 | 73 | 1019.8 |
| 20260504173328 | 54 | 298 | 5.0 | 8.0 | 0.00 | 0.00 | 0.00 | 73 | 1019.8 |
| 20260504172825 | 54 | 273 | 5.0 | 9.0 | 0.00 | 0.00 | 0.00 | 73 | 1019.6 |
| 20260504172322 | 54 | 291 | 7.0 | 9.0 | 0.00 | 0.00 | 0.00 | 72 | 1019.5 |
| 20260504171818 | 55 | 286 | 5.0 | 7.0 | 0.00 | 0.00 | 0.00 | 72 | 1019.6 |
| 20260504171315 | 55 | 266 | 6.0 | 9.0 | 0.00 | 0.00 | 0.00 | 72 | 1019.5 |
| 20260504170812 | 55 | 313 | 7.0 | 9.0 | 0.00 | 0.00 | 0.00 | 72 | 1019.5 |
| 20260504170309 | 55 | 257 | 5.0 | 9.0 | 0.00 | 0.00 | 0.00 | 73 | 1019.4 |
| 20260504160227 | 56 | 298 | 9.0 | 13.0 | 0.00 | 0.00 | 0.00 | 70 | 1018.7 |
| 20260504150652 | 56 | 287 | 6.0 | 7.0 | 0.00 | 0.00 | 0.00 | 69 | 1017.9 |
| 20260504150149 | 56 | 309 | 9.0 | 10.0 | 0.00 | 0.00 | 0.00 | 68 | 1018.0 |
| 20260504141118 | 57 | 269 | 10.0 | 13.0 | 0.00 | 0.05 | 0.05 | 71 | 1017.6 |
| 20260504140615 | 57 | 327 | 8.0 | 17.0 | 0.00 | 0.05 | 0.05 | 70 | 1017.4 |
| 20260504140110 | 57 | 294 | 5.0 | 13.0 | 0.00 | 0.05 | 0.05 | 71 | 1017.4 |
| 20260504130539 | 58 | 303 | 8.0 | 11.0 | 0.00 | 0.05 | 0.05 | 71 | 1017.6 |
| 20260504110426 | 59 | 304 | 9.0 | 13.0 | 0.00 | 0.05 | 0.05 | 71 | 1015.1 |
| 20260504100343 | 60 | 275 | 6.0 | 10.0 | 0.00 | 0.05 | 0.05 | 70 | 1013.7 |
| 20260504081737 | 65 | 30 | 12.0 | 17.0 | 0.00 | 0.05 | 0.05 | 63 | 1011.2 |
| 20260504081233 | 68 | 350 | 14.0 | 18.0 | 0.00 | 0.05 | 0.05 | 59 | 1011.0 |